Location: Grange Verzio
(44.5000°N, 6.9833°E)
Time: 16:50:44
(UTC+00:00)

Tiangong - Pass Details

Date: 12 June 2023
Orbit: 373 x 384 km, 41.5° (Epoch: 28 September)

Event Time Altitude Azimuth Distance (km) Brightness Sun altitude
Exits shadow 02:58:56 - 258° (WSW) 1,580 0.4 -7.5°
Reaches altitude 10° 02:59:33 10° 251° (WSW) 1,384 0.1 -7.4°
Maximum altitude 03:01:49 19° 204° (SSW) 992 -0.6 -7.1°
Drops below altitude 10° 03:04:06 10° 157° (SSE) 1,393 0.5 -6.8°
Sets 03:06:34 0° 138° (SE) 2,252 1.8 -6.5°
